Find PUNCH-WFI-2

NORAD ID: 63181 Int'l Des: 2025-047 Owner: SWRI/GSFC Country: US operational
LEOCIRCULARRETROGRADESSO

Current View

Loading 3D Globe...

About PUNCH-WFI-2

Description loading...

Upcoming Passes

Passes for default location (London). Set your location on the main map for personalized predictions.

Altitude History

Loading altitude history...

Two-Line Element Set

1 63181U 25047D 26150.45548237 .00000718 00000-0 11595-3 0 9999
2 63181 97.9563 335.8870 0008206 234.3458 125.6987 14.74328688 65447
Epoch: May 30, 2026 • Age: 15 hours

Current Status

Altitude 659.0 km
Velocity 7.53 km/s
Sub-Earth Point 41.27°N, 54.21°E
Launch Date Mar 12, 2025
Age 1.2 years
Type other

Technical Details

Classification Payload
Mass 64.00 kg
Dry Mass 64.00 kg
Total Mass 64.00 kg
Length 1.00 m
Diameter 0.50 m
Span 1.00 m
Shape Box+panel
Manufacturer SWRI
Bus Type Punch
Phase Status In Orbit
Owner/State SWRI/GSFC/US

Most Searched